Voltar ao catálogo

STARLINK-36999

AtivoComunicaçõesVLEO
NORAD 68268·PAYLOAD·🇺🇸 United States

Lançado Mar 19, 2026 de Vandenberg Space Force Base

Loading…

Próximas Passagens (próximas 24 horas)

TLE

AtualizadoSource: CelesTrak SupGP

Época: Sep 14, 2026, 21:40 UTC

1 68268C 26055G   26257.90326389 -.00017221  00000+0 -50888-3 0  2573
2 68268  53.1569 155.5996 0001490 103.0410  36.4565 15.34393481    15

Acompanhe STARLINK-36999 em tempo real com AllMySat

Download on the App Store